Terug naar catalogus

FLOCK 4G 31

ActiefWetenschapSSO
NORAD 62652·PAYLOAD·🇺🇸 United States

Gelanceerd Jan 14, 2025 vanaf Vandenberg Space Force Base

Loading…

Volgende Passages (komende 24 uur)

TLE

VersSource: CelesTrak SupGP

Epoch: Sep 14, 2026, 12:45 UTC

1 62652C 25009AV  26257.53136574  .00015508  00000+0  52522-3 0  2577
2 62652  97.3919 338.6675 0001947  55.3864 125.0015 15.30625001    19

Volg FLOCK 4G 31 in realtime met AllMySat

Download on the App Store